SCP
1 1 1 1 1 1 0 0 0 0 0 0 0 1 1 1 1 1 2 1 1 1 1 1 1 1 1 1 0 0 0 1 1 1 1 1 1 2 2 2 1 2 2
1 1 1 1 1 1 1 0 0 0 0 0 0 1 1 1 1 1 1 1 1 1 1 1 1 1 1 1 0 0 0 1 1 1 1 1 1 2 2 2 1 2 2
1 1 1 1 1 1 1 0 0 0 0 0 1 1 1 1 1 1 1 1 1 1 1 1 1 1 1 0 0 0 0 0 1 1 1 1 1 1 2 2 2 2 2
1 1 1 1 1 1 1 0 0 0 0 1 1 1 1 1 1 1 1 1 1 1 1 1 0 0 0 0 0 0 0 0 0 1 1 1 1 1 1 2 2 2 2
1 1 1 1 1 1 1 1 1 1 1 1 1 1 1 1 0 1 1 1 1 1 1 0 0 0 0 0 0 0 0 0 0 1 1 0 1 1 1 1 1 2 2
1 1 1 1 1 1 1 1 1 1 2 2 3 2 1 1 1 1 1 1 1 1 1 0 0 0 0 0 0 0 1 1 1 1 1 1 1 1 1 1 1 1 2
1 1 1 1 1 1 1 1 1 1 2 3 3 3 2 1 1 1 1 1 1 1 1 0 1 1 1 1 1 1 1 1 1 1 1 1 1 1 1 1 1 1 1
1 1 1 1 1 1 1 1 1 2 3 3 4 4 4 3 3 2 2 2 2 1 1 1 1 1 1 1 1 1 1 1 1 1 1 1 1 1 2 1 1 2 2
1 1 1 1 1 1 1 1 2 2 3 3 4 4 5 4 4 3 2 2 2 2 1 1 1 1 1 1 1 1 1 1 1 1 1 1 1 1 2 2 2 2 2
1 1 1 1 1 1 1 1 2 2 2 3 3 4 5 4 3 2 2 2 3 3 2 2 1 1 1 1 1 1 1 1 1 1 1 1 1 1 1 2 2 2 2
1 1 1 1 1 1 1 1 1 2 2 2 3 3 4 4 3 2 2 2 3 2 2 2 2 1 1 1 1 1 1 1 1 1 1 1 1 1 1 1 1 1 1
1 1 1 1 1 1 1 1 1 2 2 2 2 2 3 3 3 3 2 2 2 2 2 2 2 1 1 1 1 1 1 1 1 1 1 1 1 1 1 1 1 1 1
1 1 1 1 1 1 1 1 1 2 2 2 2 2 2 3 3 3 2 2 2 1 1 1 1 1 1 1 1 1 1 1 1 1 1 1 1 1 1 1 1 1 1
1 1 1 1 1 1 1 1 1 1 2 2 2 2 2 2 3 3 3 2 1 1 1 1 1 1 1 1 1 1 1 1 1 1 1 1 1 1 1 1 1 1 1
1 1 1 1 1 1 1 1 1 1 1 2 2 2 2 2 2 3 3 3 2 1 1 1 1 1 1 1 1 1 1 1 1 1 1 1 1 1 1 1 2 2 2
1 1 1 1 1 1 1 1 1 1 2 2 2 2 2 2 2 2 3 3 2 2 1 1 1 1 1 1 1 1 1 1 1 1 1 1 1 1 1 2 2 2 2
2 2 2 2 2 2 2 2 2 2 2 2 2 2 2 2 2 2 2 2 2 2 2 1 1 1 1 1 1 1 1 1 1 1 1 1 1 1 2 2 2 2 1
2 3 2 2 2 3 3 2 2 2 2 2 2 2 2 2 2 2 2 2 2 2 2 1 1 1 1 1 1 1 1 1 1 1 1 1 1 2 2 2 2 2 1
3 4 4 3 3 4 4 4 3 3 3 2 2 2 2 2 2 2 2 2 2 2 2 1 1 1 1 1 1 1 1 1 2 2 1 1 2 2 2 2 2 2 1
4 5 6 5 5 5 5 5 4 3 3 2 2 2 2 2 2 2 3 3 2 2 2 2 1 1 1 1 1 1 1 2 2 2 2 2 2 2 3 3 3 2 2
5 7 9 8 8 7 5 4 3 3 2 2 2 2 2 2 2 2 2 2 2 2 2 2 2 2 1 1 1 1 2 2 2 2 2 2 2 2 3 3 4 4 3
6 7 9 9 9 8 5 3 3 2 2 2 2 3 3 3 2 2 2 2 2 2 2 2 2 2 1 1 1 1 1 2 2 2 2 2 2 2 2 3 4 6 6
6 7 8 10 11 10 6 3 3 3 3 3 3 4 4 3 3 2 2 2 2 2 2 2 1 1 1 1 1 1 1 2 2 2 2 2 2 2 2 2 4 7 8
5 7 12 15 14 10 5 3 3 3 3 3 4 4 4 4 3 2 2 2 2 2 2 2 1 1 1 1 1 1 1 2 2 2 1 2 2 2 2 2 3 5 6
5 10 16 18 13 9 5 3 4 4 5 4 4 5 5 4 3 3 2 2 2 2 2 2 1 1 1 1 1 1 1 2 2 2 1 1 1 2 2 3 4 4 4
6 12 17 16 12 8 5 4 4 5 5 4 5 6 6 5 4 3 2 2 2 2 2 2 1 1 2 1 1 1 1 2 2 2 2 1 1 2 2 3 5 5 4
Wind_Speed
10 11 11 10 10 10 10 10 9 9 9 9 10 10 10 10 10 10 10 11 11 10 10 9 9 9 8 7 7 7 7 6 6 7 7 7 6 6 6 6 5 6 8
12 12 11 10 10 11 11 10 10 10 10 10 10 10 10 10 10 10 10 10 10 9 9 8 8 8 8 7 7 6 5 5 6 6 7 6 6 6 6 5 5 5 8
12 11 11 11 11 12 11 11 10 10 10 10 10 10 9 9 9 10 9 9 9 8 8 8 8 8 7 6 6 5 5 5 5 6 6 4 6 7 7 7 7 7 7
12 11 11 11 12 12 12 11 11 11 11 10 10 10 9 9 9 9 9 9 8 8 8 7 7 7 6 5 4 4 4 4 5 5 4 4 5 8 7 7 7 7 6
12 12 12 12 12 12 12 11 11 11 11 11 11 10 9 9 8 8 8 8 8 7 7 7 6 6 5 4 3 3 3 4 5 5 2 4 5 8 8 7 7 6 6
13 13 12 12 12 11 11 11 11 11 11 11 10 10 9 9 8 8 8 7 7 7 6 6 6 5 4 3 3 3 4 5 5 4 4 5 5 7 8 7 6 6 5
12 12 13 12 12 11 11 11 10 10 10 10 10 10 9 9 8 8 8 7 6 6 6 5 5 4 3 3 3 4 5 6 5 2 4 5 5 8 8 7 6 5 5
12 13 12 13 13 12 11 11 10 10 10 9 9 9 8 8 7 8 7 7 6 5 5 4 4 3 3 3 4 5 6 8 3 3 5 6 7 8 8 7 6 5 5
11 12 11 11 11 11 11 10 9 9 9 8 8 8 8 8 7 8 7 7 6 5 4 4 3 3 4 5 6 7 7 7 4 2 5 5 7 8 8 7 6 5 5
9 10 10 10 10 10 9 9 9 9 8 8 7 7 7 7 7 7 7 6 6 5 4 4 3 3 4 6 7 8 8 7 4 3 4 6 8 8 7 7 6 6 5
9 8 8 8 9 8 9 9 9 8 7 7 6 7 6 5 6 6 6 7 7 6 5 5 4 4 5 6 7 8 7 4 3 3 5 8 9 8 7 6 6 5 5
8 8 8 8 7 7 6 7 5 5 5 4 3 5 4 3 3 4 8 8 7 7 6 6 6 5 5 3 5 7 4 4 2 4 5 10 9 8 7 6 6 5 5
7 7 8 7 6 6 4 4 2 3 3 3 3 2 2 2 2 3 3 4 5 6 5 5 6 4 3 2 2 2 2 1 1 4 6 10 9 8 7 7 6 5 5
6 7 8 7 5 4 3 3 3 2 2 2 3 2 2 1 0 1 1 2 3 3 3 2 2 3 3 2 1 1 0 0 2 3 6 10 9 8 8 7 6 5 5
6 7 8 7 5 4 3 1 2 2 2 2 2 2 2 1 1 1 0 1 1 1 2 2 1 1 0 0 1 0 0 1 2 3 4 9 10 9 8 7 6 6 6
7 7 7 7 6 4 2 1 1 2 2 2 2 2 2 1 1 0 1 1 0 1 1 1 1 1 1 0 0 0 0 1 2 3 5 6 8 8 8 7 6 6 6
7 6 6 7 7 5 3 2 2 2 2 2 2 2 1 1 1 1 1 1 0 1 1 1 1 0 1 1 1 1 1 0 2 2 4 4 5 7 8 8 7 6 6
7 6 4 5 7 5 3 1 0 1 2 2 2 2 1 1 1 0 1 0 0 1 1 1 0 0 0 0 0 1 1 1 2 2 3 3 4 4 6 8 7 7 7
6 6 4 4 5 5 4 2 1 1 1 1 1 2 2 1 1 1 0 0 1 1 0 1 1 1 1 1 1 2 2 1 2 2 2 3 3 4 4 6 8 7 7
7 6 5 4 3 3 3 2 1 1 1 1 1 1 1 1 1 0 1 1 1 1 1 1 1 1 1 1 2 1 2 2 2 2 2 2 3 4 4 5 4 5 7
8 6 6 5 4 2 2 2 2 1 1 1 2 2 1 1 0 0 1 0 1 0 1 1 1 2 2 1 0 1 1 2 2 2 2 1 2 2 3 5 4 3 4
8 7 6 5 5 4 2 1 1 1 1 1 1 2 2 1 1 1 1 1 0 0 1 1 1 1 2 1 0 1 1 1 1 2 2 2 2 2 2 4 4 4 3
9 9 7 6 5 4 3 2 1 1 1 1 2 2 2 2 1 0 0 1 1 1 1 1 1 1 2 2 1 0 0 0 1 1 1 2 2 2 2 2 3 4 4
9 9 7 7 5 4 3 2 2 2 1 1 1 1 2 1 1 1 1 1 1 1 0 1 1 2 2 2 2 1 1 1 0 1 1 0 1 2 2 2 2 3 4
9 9 8 7 6 5 4 3 2 2 1 1 1 2 2 2 1 1 1 1 0 0 1 1 1 1 1 2 2 1 1 1 1 1 1 1 1 1 2 3 2 2 3
9 10 10 8 6 5 4 3 3 2 1 1 1 2 2 2 2 2 2 1 1 1 1 1 1 1 1 2 2 2 1 1 1 1 1 1 1 1 1 2 2 2 3
Wind_Direction
96 101 106 103 104 107 108 109 107 105 109 111 107 107 112 114 113 110 108 107 106 107 107 104 102 103 103 103 104 106 112 118 121 124 123 122 120 117 117 125 132 119 119
98 102 104 100 104 109 111 110 110 109 107 108 107 108 114 117 117 115 113 112 110 110 108 107 106 105 107 107 110 118 131 137 141 144 143 140 136 130 125 126 124 118 122
100 105 102 95 101 109 112 112 112 113 112 110 110 109 111 113 112 111 111 113 112 111 108 105 108 110 112 118 128 138 146 155 160 171 171 156 140 135 129 123 127 130 127
104 103 99 101 102 107 111 112 112 112 112 115 117 117 115 112 111 111 111 110 109 112 113 113 112 114 120 125 138 152 171 184 193 207 201 157 139 132 133 130 133 135 135
100 100 102 104 106 109 111 114 113 112 113 118 121 122 122 117 116 117 115 112 111 112 113 114 116 122 128 132 149 171 191 211 225 231 189 127 116 135 134 135 136 136 137
108 104 106 108 107 110 112 113 112 112 113 116 121 120 121 122 124 125 125 123 122 121 122 124 125 130 139 149 172 198 215 237 251 222 145 123 121 136 140 139 139 142 145
107 109 112 111 110 110 113 114 115 115 116 118 120 122 122 122 126 131 132 132 132 128 130 132 133 142 161 178 203 219 237 257 246 195 128 117 125 138 140 143 148 151 155
111 113 116 118 116 114 113 114 118 121 121 123 124 127 127 126 130 137 138 137 137 136 139 140 144 158 179 205 222 233 247 264 242 163 128 123 138 144 148 154 160 163 163
113 118 126 127 125 123 121 122 125 127 130 131 133 134 138 139 137 137 140 141 142 144 151 155 159 181 204 222 233 239 248 258 250 183 139 132 145 150 157 163 169 171 174
112 118 126 132 133 136 135 134 134 138 142 142 145 149 153 153 154 153 153 152 157 162 170 171 178 199 218 231 236 241 251 262 228 161 129 140 153 157 162 169 173 176 181
116 121 126 130 133 137 137 137 143 146 153 157 167 173 174 178 170 172 154 159 168 174 186 194 205 214 231 237 234 235 245 238 197 144 121 143 154 158 164 170 175 181 186
124 129 129 127 127 130 125 135 153 152 155 178 165 165 182 177 158 147 145 167 176 186 200 211 221 223 232 237 230 230 231 225 188 130 134 152 155 160 166 173 180 186 189
127 119 116 113 119 118 121 139 137 140 149 168 143 158 154 138 150 138 154 168 187 196 207 199 212 227 229 228 220 216 224 208 125 118 141 154 158 166 171 179 185 188 191
128 122 114 114 112 108 110 125 144 143 146 156 154 168 131 126 147 152 175 182 189 195 199 198 207 210 227 210 234 269 331 94 104 113 147 159 164 170 175 180 186 190 191
128 120 117 115 108 103 100 137 130 144 146 144 139 136 131 146 150 132 197 212 216 193 192 200 223 207 248 224 264 233 1 98 112 124 140 166 169 174 177 180 185 186 190
126 125 124 123 123 128 132 139 155 155 136 148 132 123 134 128 122 192 231 244 242 231 195 213 220 158 265 214 283 48 21 97 115 135 150 167 174 176 182 183 186 188 190
132 125 131 139 136 143 153 183 170 173 146 133 121 119 126 126 160 201 228 222 222 253 205 210 245 150 225 218 174 191 154 178 160 160 146 156 170 183 187 185 185 186 186
137 134 143 143 135 143 151 173 167 123 108 129 137 134 150 142 169 202 211 224 222 239 220 186 223 312 307 0 158 231 159 175 166 163 157 165 171 174 182 186 186 187 186
137 136 140 128 136 148 160 159 181 134 125 133 114 121 136 193 185 203 162 85 273 261 279 22 65 337 327 330 242 212 186 183 179 179 158 179 175 160 162 180 185 187 188
141 141 145 144 141 153 159 153 190 195 176 173 140 120 130 213 181 214 195 170 287 356 31 54 360 296 270 273 290 271 202 188 185 167 172 180 172 171 161 158 170 189 187
150 150 157 159 154 167 168 182 196 190 195 191 160 135 150 206 202 205 349 125 265 64 44 346 317 280 264 225 303 317 269 212 181 166 170 155 159 171 155 152 161 163 172
161 161 158 163 167 176 179 182 190 198 210 198 130 137 167 187 227 193 168 267 178 146 221 296 317 313 301 288 262 301 309 307 302 165 160 164 166 169 153 160 164 162 160
167 167 169 169 171 173 179 180 198 188 228 187 150 159 178 184 187 273 173 280 287 247 173 220 282 265 291 297 285 222 286 315 304 280 192 158 164 162 162 164 163 160 161
169 165 156 158 163 163 181 188 199 201 209 202 188 157 172 181 176 174 200 272 304 342 51 239 207 281 281 292 291 243 192 169 205 325 330 221 171 167 181 178 154 151 148
169 162 155 154 158 163 181 178 206 228 212 210 172 150 161 165 180 198 187 234 245 315 344 352 6 310 318 312 308 310 305 248 222 213 271 289 281 214 185 168 162 157 150
166 159 157 153 158 167 179 189 195 214 211 226 212 166 186 184 178 190 195 209 197 236 277 275 282 287 295 306 311 313 310 302 272 230 242 253 254 252 201 155 152 159 163